#timestamp,LO_Frequency,Hit,StdDev 
1704574815.8,286047001.2,N
1704574835.6,286047000.5,N
1704574855.5,286047000.6,N
1704574875.3,286046998.5,N
1704574895.1,286046999.3,N
1704574915.9,286046999.1,N
1704574935.7,286046999.5,N
1704574955.6,286046999.2,N
1704574975.4,286046999.5,N
1704574995.2,286046999.3,N
1704575015.1,286046999.5,N
1704575016.0,286046999.5,N
1704575035.8,286046999.1,N
1704575055.6,286046999.0,N
1704575075.5,286046998.8,N
1704575095.3,286046998.8,N
1704575115.2,286046999.1,N
1704575135.9,286046999.0,N
1704575155.7,286046999.3,N
1704575175.6,286046999.3,N
1704575195.4,286046998.9,N
1704575215.2,286046998.5,N
1704575235.1,286047001.0,N
1704575236.0,286047001.0,N
1704575255.8,286047001.0,N
1704575275.7,286047000.6,N
1704575295.5,286046998.2,N
1704575315.3,286046998.8,N
1704575335.2,286047000.3,N
1704575355.0,286046999.9,N
1704575355.9,286046999.9,N
1704575375.7,286047000.2,N
1704575395.6,286047000.2,N
1704575415.4,286046999.7,N
1704575435.3,286047002.0,N
1704575455.1,286047002.0,N
1704575475.8,286047004.0,Y
1704575495.7,286047003.5,P
1704575515.5,286047003.1,N
1704575535.4,286047006.0,P
1704575555.2,286047006.0,N
1704575575.0,286047005.6,N
1704575575.9,286047005.6,N
1704575595.8,286047005.8,N
1704575615.6,286047005.6,N
1704575635.4,286047005.1,N
1704575655.3,286047005.0,N
1704575675.1,286047004.6,N
1704575695.9,286047004.5,N
1704575715.7,286047007.4,Y
1704575735.5,286047004.3,P
1704575755.4,286047003.8,P
1704575775.2,286047004.3,P
1704575795.1,286047004.2,Y
1704575796.0,286047004.2,P
1704575815.8,286047000.6,P
1704575835.6,286046998.6,N
1704575855.5,286046998.2,N
1704575875.3,286047001.0,N
1704575895.1,286047000.6,N
1704575915.9,286047000.8,N
1704575935.7,286046998.3,N
1704575955.6,286046998.2,N
1704575975.4,286046999.7,N
1704575995.2,286047000.5,N
1704576015.1,286047000.2,N
1704576016.0,286047000.2,N
1704576035.8,286047001.6,N
1704576055.7,286047001.6,N
1704576075.5,286047002.5,N
1704576095.3,286047002.5,N
1704576115.2,286047002.5,N
1704576135.0,286047004.4,N
1704576135.9,286047004.4,N
1704576155.7,286047003.8,N
1704576175.6,286047003.0,N
1704576195.4,286047003.1,N
1704576215.3,286047004.2,N
1704576235.1,286047001.7,N
1704576255.8,286047004.2,N
1704576275.7,286047003.5,N
1704576295.5,286047004.1,N
1704576315.4,286047001.8,N
1704576335.2,286047003.7,N
1704576355.0,286047003.3,N
1704576355.9,286047003.3,N
1704576375.8,286047003.0,N
1704576395.6,286047005.7,Y
1704576415.4,286047002.4,P
1704576435.3,286047002.2,P
1704576455.1,286047001.6,P
1704576475.9,286046999.9,N
1704576495.7,286047002.5,N
1704576515.5,286047002.5,N
1704576535.4,286046999.8,N
1704576555.2,286047002.1,N
1704576575.0,286047001.3,N
1704576575.9,286047001.3,N
1704576595.8,286047001.8,N
1704576615.6,286047001.4,N
1704576635.5,286047003.8,Y
1704576655.3,286047002.8,P
1704576675.1,286046999.7,N
1704576695.9,286047002.3,N
1704576715.7,286047000.1,N
1704576735.6,286047000.5,N
1704576755.4,286046998.5,N
1704576775.2,286046998.4,N
1704576795.1,286046998.7,N
1704576796.0,286046998.7,N
1704576815.8,286047000.5,N
1704576835.6,286047000.9,N
1704576855.5,286047001.0,N
1704576875.3,286047000.7,N
1704576895.2,286047000.9,N
1704576915.9,286047000.6,N
1704576935.7,286047001.1,N
1704576955.6,286046998.3,N
1704576975.4,286046998.1,N
1704576995.2,286047000.8,N
1704577015.1,286046999.8,N
1704577016.0,286046999.8,N
1704577035.8,286047001.1,N
1704577055.7,286047001.2,N
1704577075.5,286046998.2,N
1704577095.3,286047001.1,N
1704577115.2,286047001.1,N
1704577135.0,286047000.3,N
1704577135.9,286047000.3,N
1704577155.7,286047000.9,N
1704577175.6,286047000.5,N
1704577195.4,286047000.6,N
1704577215.3,286047000.8,N
1704577235.1,286047000.6,N
1704577236.0,286047000.6,N
1704577255.8,286047001.1,N
1704577275.7,286047000.5,N
1704577295.5,286047002.8,N
1704577315.3,286047000.3,N
1704577335.2,286047000.3,N
1704577355.0,286047002.8,N
1704577355.9,286047002.8,N
1704577375.8,286046999.8,N
1704577395.6,286046999.7,N
1704577415.4,286046999.9,N
1704577435.3,286046998.2,N
1704577455.1,286047000.2,N
1704577475.9,286046999.9,N
1704577495.7,286047002.7,N
1704577515.5,286047002.1,N
1704577535.4,286047001.9,N
1704577555.2,286047001.7,N
1704577575.0,286047001.3,N
1704577576.0,286047001.3,N
1704577595.8,286047002.6,N
1704577615.6,286047011.9,Y
1704577635.5,286047000.1,P
1704577655.3,286047002.1,P
1704577675.1,286047002.6,P
1704577695.9,286047002.3,N
1704577715.7,286047002.0,N
1704577735.6,286047001.8,N
1704577755.4,286047002.0,N
1704577775.2,286046999.7,N
1704577795.1,286047002.3,N
1704577796.0,286047002.3,N
1704577815.8,286047002.2,N
1704577835.6,286047001.9,N
1704577855.5,286047002.1,N
1704577875.3,286047002.2,N
1704577895.2,286047001.8,N
1704577915.9,286047004.4,Y
1704577935.7,286047000.5,P
1704577955.6,286047000.5,N
1704577975.4,286046999.9,N
1704577995.3,286047002.8,Y
1704578015.1,286047000.3,P
1704578016.0,286047000.3,N
1704578035.8,286047000.1,N
1704578055.7,286047002.3,Y
1704578075.5,286047000.2,P
1704578095.4,286047000.3,P
1704578115.2,286047001.6,P
1704578135.0,286047002.6,Y
1704578135.9,286047002.6,P
1704578155.8,286047000.1,N
1704578175.6,286046999.7,N
1704578195.4,286047002.0,N
1704578215.3,286047001.9,N
1704578235.1,286047002.2,N
1704578255.9,286047002.1,N
1704578275.7,286047001.9,N
1704578295.5,286047004.0,Y
1704578315.4,286047002.3,P
1704578335.2,286047002.3,P
1704578355.1,286047000.0,N
1704578356.0,286047000.0,N
1704578375.8,286047001.8,N
1704578395.6,286047001.4,N
